Time,TemperatureF,DewpointF,PressureIn,WindDirection,WindDirectionDegrees,WindSpeedMPH,WindSpeedGustMPH,Humidity,HourlyPrecipIn,Conditions,Clouds,dailyrainin,SoftwareType,DateUTC
2013-06-28 12:41:00,75.2,71.4,29.51,East,82,5.0,5.0,88,0.00,,,0.38,Wunderground v.1.15,2013-06-28 16:41:00,
2013-06-28 12:50:00,76.2,71.7,29.51,ENE,68,6.0,6.0,86,0.00,,,0.38,Wunderground v.1.15,2013-06-28 16:50:00,
2013-06-28 12:55:00,76.6,72.1,29.50,NW,312,5.0,5.0,86,0.00,,,0.38,Wunderground v.1.15,2013-06-28 16:55:00,
2013-06-28 13:00:00,76.9,72.0,29.50,WNW,298,5.0,9.0,85,0.00,,,0.38,Wunderground v.1.15,2013-06-28 17:00:00,
2013-06-28 13:05:00,77.0,71.8,29.50,South,174,6.0,9.0,84,0.00,,,0.38,Wunderground v.1.15,2013-06-28 17:05:00,
2013-06-28 13:15:00,77.3,72.1,29.51,North,11,6.0,6.0,84,0.00,,,0.38,Wunderground v.1.15,2013-06-28 17:15:00,
2013-06-28 13:25:00,77.3,71.7,29.51,SSE,167,6.0,9.0,83,0.00,,,0.38,Wunderground v.1.15,2013-06-28 17:25:00,
2013-06-28 13:30:00,77.4,71.8,29.51,West,260,6.0,6.0,83,0.00,,,0.38,Wunderground v.1.15,2013-06-28 17:30:00,
2013-06-28 13:40:00,78.1,72.2,29.51,NNW,338,5.0,5.0,82,0.00,,,0.38,Wunderground v.1.15,2013-06-28 17:40:00,
2013-06-28 13:45:00,78.5,72.5,29.50,East,86,5.0,5.0,82,0.00,,,0.38,Wunderground v.1.15,2013-06-28 17:45:00,
2013-06-28 13:55:00,78.9,72.2,29.50,ESE,115,7.0,13.0,80,0.00,,,0.38,Wunderground v.1.15,2013-06-28 17:55:00,
2013-06-28 14:05:00,79.2,72.5,29.50,SSE,165,6.0,7.0,80,0.00,,,0.38,Wunderground v.1.15,2013-06-28 18:05:00,
2013-06-28 14:10:00,79.3,72.2,29.50,ESE,123,6.0,7.0,79,0.00,,,0.38,Wunderground v.1.15,2013-06-28 18:10:00,
2013-06-28 14:20:00,79.3,71.8,29.50,WNW,283,7.0,12.0,78,0.00,,,0.38,Wunderground v.1.15,2013-06-28 18:20:00,
2013-06-28 14:30:00,79.6,72.5,29.49,NW,317,5.0,5.0,79,0.00,,,0.38,Wunderground v.1.15,2013-06-28 18:30:00,
2013-06-28 14:35:00,79.5,72.0,29.49,ESE,122,5.0,5.0,78,0.00,,,0.38,Wunderground v.1.15,2013-06-28 18:35:00,
2013-06-28 14:40:00,79.2,72.1,29.49,East,101,6.0,8.0,79,0.00,,,0.38,Wunderground v.1.15,2013-06-28 18:40:00,
2013-06-28 14:50:00,79.1,72.0,29.48,ESE,111,7.0,7.0,79,0.00,,,0.38,Wunderground v.1.15,2013-06-28 18:50:00,
2013-06-28 15:00:00,79.8,71.9,29.49,NNE,24,6.0,8.0,77,0.00,,,0.38,Wunderground v.1.15,2013-06-28 19:00:00,
2013-06-28 15:05:00,79.8,71.6,29.49,WSW,250,6.0,8.0,76,0.00,,,0.38,Wunderground v.1.15,2013-06-28 19:05:00,
2013-06-28 15:15:00,80.0,71.4,29.48,WNW,282,8.0,15.0,75,0.00,,,0.38,Wunderground v.1.15,2013-06-28 19:15:00,
2013-06-28 15:25:00,80.9,71.4,29.48,West,269,5.0,7.0,73,0.00,,,0.38,Wunderground v.1.15,2013-06-28 19:25:00,
2013-06-28 15:30:00,81.0,71.5,29.49,NNW,332,6.0,6.0,73,0.00,,,0.38,Wunderground v.1.15,2013-06-28 19:30:00,
2013-06-28 15:35:00,81.1,71.6,29.48,SE,129,5.0,6.0,73,0.00,,,0.38,Wunderground v.1.15,2013-06-28 19:35:00,
2013-06-28 15:45:00,81.1,70.8,29.48,WNW,290,7.0,7.0,71,0.00,,,0.38,Wunderground v.1.15,2013-06-28 19:45:00,
2013-06-28 15:55:00,81.6,70.9,29.49,North,5,6.0,7.0,70,0.00,,,0.38,Wunderground v.1.15,2013-06-28 19:55:00,
2013-06-28 16:05:00,81.6,70.4,29.48,WSW,249,6.0,7.0,69,0.00,,,0.38,Wunderground v.1.15,2013-06-28 20:05:00,
2013-06-28 16:10:00,81.6,70.9,29.48,WNW,294,5.0,6.0,70,0.00,,,0.38,Wunderground v.1.15,2013-06-28 20:10:00,
2013-06-28 16:20:00,81.4,70.2,29.48,WNW,286,6.0,7.0,69,0.00,,,0.38,Wunderground v.1.15,2013-06-28 20:20:00,
2013-06-28 16:25:00,81.5,70.3,29.48,West,273,6.0,12.0,69,0.00,,,0.38,Wunderground v.1.15,2013-06-28 20:25:00,
2013-06-28 16:35:00,81.4,70.2,29.48,West,263,5.0,5.0,69,0.00,,,0.38,Wunderground v.1.15,2013-06-28 20:35:00,